Location: Moydans
(44.3997°N, 5.5038°E)
Time: 03:09:43
(UTC+02:00)

Envisat - Pass Details

Date: 29 September 2021
Orbit: 764 x 766 km, 98.2° (Epoch: 17 October)

Event Time Altitude Azimuth Distance (km) Brightness Sun altitude
Rises 06:47:51 0° 14° (NNE) 3,240 6.5 -9.0°
Reaches altitude 10° 06:50:10 10° 15° (NNE) 2,309 5.8 -8.6°
Maximum altitude 06:55:16 80° 103° (ESE) 780 3.2 -7.6°
Drops below altitude 10° 07:00:20 10° 191° (S) 2,292 5.3 -6.7°
Sets 07:02:37 0° 192° (SSW) 3,213 6.1 -6.3°
